WZZ4RD UKLL-LZKZ

Flight info

Callsign WZZ4RD
Flight time 0h 35m
Altitude 22000
Route KOKUP Q560 VI P27 MALBE/N0302F140 A42 HATIP
Aircraft A320/M-SDE3FGHIRWY/LB1

Departure

Time 2026-04-22 17:41
Airport Lviv International Airport (UKLL)

Arrival

Time 2026-04-22 18:17
Airport Košice International Airport (LZKZ)
Time Latitude Longitude Altitude Speed Heading
2026-04-22 17:25 49.81292 23.95878 1066 ft 0 kts 46°
2026-04-22 17:29 49.81283 23.95865 1065 ft 4 kts 47°
2026-04-22 17:29 49.81266 23.95833 1069 ft 4 kts 54°
2026-04-22 17:29 49.81252 23.95798 1067 ft 4 kts 74°
2026-04-22 17:30 49.81252 23.95764 1066 ft 2 kts 135°
2026-04-22 17:30 49.81253 23.95762 1066 ft 0 kts 136°
2026-04-22 17:35 49.81242 23.95778 1069 ft 4 kts 136°
2026-04-22 17:35 49.81216 23.95818 1066 ft 7 kts 136°
2026-04-22 17:36 49.81174 23.95881 1066 ft 10 kts 136°
2026-04-22 17:36 49.81117 23.95967 1066 ft 13 kts 136°
2026-04-22 17:36 49.81037 23.96034 1066 ft 15 kts 175°
2026-04-22 17:36 49.80924 23.96037 1067 ft 18 kts 180°
2026-04-22 17:37 49.80811 23.96084 1065 ft 16 kts 138°
2026-04-22 17:37 49.80730 23.96212 1066 ft 18 kts 137°
2026-04-22 17:37 49.80638 23.96344 1066 ft 3 kts 136°
2026-04-22 17:37 49.80623 23.96367 1068 ft 1 kts 136°
2026-04-22 17:38 49.80622 23.96367 1068 ft 0 kts 136°
2026-04-22 17:38 49.80615 23.96380 1066 ft 4 kts 132°
2026-04-22 17:38 49.80595 23.96445 1066 ft 10 kts 101°
2026-04-22 17:38 49.80592 23.96570 1066 ft 14 kts 91°
2026-04-22 17:39 49.80572 23.96722 1066 ft 15 kts 133°
2026-04-22 17:39 49.80500 23.96758 1066 ft 0 kts 202°
2026-04-22 17:39 49.80497 23.96755 1066 ft 2 kts 209°
2026-04-22 17:40 49.80466 23.96713 1066 ft 9 kts 227°
2026-04-22 17:40 49.80465 23.96608 1065 ft 12 kts 305°
2026-04-22 17:40 49.80535 23.96505 1065 ft 15 kts 320°
2026-04-22 17:40 49.80633 23.96364 1069 ft 39 kts 317°
2026-04-22 17:41 49.80875 23.95993 1064 ft 106 kts 313°
2026-04-22 17:41 49.81594 23.94892 1084 ft 179 kts 315°
2026-04-22 17:41 49.82452 23.93528 2151 ft 174 kts 315°
2026-04-22 17:41 49.83338 23.92160 3237 ft 187 kts 316°
2026-04-22 17:42 49.84297 23.90725 4419 ft 196 kts 317°
2026-04-22 17:42 49.85301 23.89268 5646 ft 195 kts 317°
2026-04-22 17:42 49.86272 23.87899 6794 ft 183 kts 318°
2026-04-22 17:42 49.87192 23.86642 7794 ft 170 kts 320°
2026-04-22 17:43 49.88068 23.85482 8621 ft 165 kts 321°
2026-04-22 17:43 49.89002 23.84290 9047 ft 183 kts 322°
2026-04-22 17:43 49.89687 23.82556 9422 ft 209 kts 278°
2026-04-22 17:43 49.89237 23.80368 10059 ft 225 kts 228°
2026-04-22 17:44 49.87922 23.79115 10894 ft 222 kts 206°
2026-04-22 17:44 49.86523 23.78383 11915 ft 205 kts 193°
2026-04-22 17:44 49.85070 23.78106 12301 ft 224 kts 180°
2026-04-22 17:44 49.83433 23.77900 12531 ft 245 kts 200°
2026-04-22 17:45 49.81975 23.76711 13408 ft 238 kts 213°
2026-04-22 17:45 49.80418 23.75238 13158 ft 289 kts 212°
2026-04-22 17:45 49.78507 23.73648 13054 ft 329 kts 206°
2026-04-22 17:45 49.76344 23.72156 13432 ft 348 kts 204°
2026-04-22 17:46 49.74099 23.70637 14115 ft 355 kts 205°
2026-04-22 17:46 49.71846 23.69018 14811 ft 360 kts 206°
2026-04-22 17:46 49.69589 23.67274 15518 ft 364 kts 208°
2026-04-22 17:46 49.67336 23.65430 16211 ft 369 kts 209°
2026-04-22 17:47 49.65072 23.63511 16913 ft 373 kts 209°
2026-04-22 17:47 49.62817 23.61570 17601 ft 378 kts 209°
2026-04-22 17:47 49.60477 23.59555 18308 ft 383 kts 209°
2026-04-22 17:47 49.58166 23.57578 18915 ft 388 kts 208°
2026-04-22 17:48 49.55787 23.55561 19541 ft 392 kts 208°
2026-04-22 17:48 49.53377 23.53532 20171 ft 397 kts 208°
2026-04-22 17:48 49.50936 23.51488 20780 ft 402 kts 207°
2026-04-22 17:48 49.48465 23.49426 21384 ft 406 kts 207°
2026-04-22 17:49 49.45954 23.47333 21906 ft 411 kts 207°
2026-04-22 17:49 49.43434 23.45228 22047 ft 410 kts 207°
2026-04-22 17:49 49.41007 23.43194 22070 ft 395 kts 207°
2026-04-22 17:49 49.38611 23.41189 22073 ft 391 kts 207°
2026-04-22 17:50 49.36222 23.39194 22074 ft 390 kts 207°
2026-04-22 17:50 49.33836 23.37209 22084 ft 390 kts 207°
2026-04-22 17:50 49.31448 23.35225 22083 ft 390 kts 206°
2026-04-22 17:50 49.29066 23.33250 22084 ft 389 kts 207°
2026-04-22 17:51 49.26684 23.31277 22086 ft 389 kts 206°
2026-04-22 17:51 49.24303 23.29305 22087 ft 389 kts 206°
2026-04-22 17:51 49.21921 23.27335 22092 ft 389 kts 206°
2026-04-22 17:51 49.19543 23.25369 22092 ft 389 kts 206°
2026-04-22 17:52 49.17163 23.23402 22099 ft 389 kts 206°
2026-04-22 17:52 49.14782 23.21439 22106 ft 389 kts 206°
2026-04-22 17:52 49.12397 23.19472 22112 ft 390 kts 206°
2026-04-22 17:52 49.10010 23.17506 22114 ft 389 kts 207°
2026-04-22 17:53 49.07631 23.15547 21989 ft 385 kts 206°
2026-04-22 17:53 49.05300 23.13629 21721 ft 377 kts 206°
2026-04-22 17:53 49.03000 23.11742 21456 ft 372 kts 206°
2026-04-22 17:53 49.00732 23.09887 21201 ft 369 kts 206°
2026-04-22 17:54 48.98495 23.07992 20932 ft 367 kts 212°
2026-04-22 17:54 48.96481 23.05609 20670 ft 366 kts 224°
2026-04-22 17:54 48.94806 23.02727 20410 ft 363 kts 235°
2026-04-22 17:54 48.93524 22.99500 20163 ft 359 kts 246°
2026-04-22 17:55 48.92634 22.95980 19909 ft 355 kts 257°
2026-04-22 17:55 48.92015 22.92356 19663 ft 353 kts 258°
2026-04-22 17:55 48.91398 22.88750 19411 ft 351 kts 258°
2026-04-22 17:55 48.90778 22.85176 19162 ft 349 kts 258°
2026-04-22 17:56 48.90156 22.81621 18875 ft 348 kts 258°
2026-04-22 17:56 48.89532 22.78066 18383 ft 349 kts 257°
2026-04-22 17:56 48.88908 22.74502 17830 ft 350 kts 257°
2026-04-22 17:56 48.88281 22.70924 17282 ft 350 kts 257°
2026-04-22 17:57 48.87655 22.67355 16748 ft 350 kts 257°
2026-04-22 17:57 48.87027 22.63778 16225 ft 350 kts 257°
2026-04-22 17:57 48.86403 22.60214 15696 ft 348 kts 257°
2026-04-22 17:57 48.85780 22.56660 15188 ft 347 kts 257°
2026-04-22 17:58 48.85157 22.53119 14689 ft 347 kts 257°
2026-04-22 17:58 48.84536 22.49595 14221 ft 344 kts 257°
2026-04-22 17:58 48.83925 22.46156 14091 ft 331 kts 257°
2026-04-22 17:58 48.83334 22.42856 14100 ft 317 kts 257°
2026-04-22 17:59 48.82759 22.39637 14106 ft 315 kts 257°
2026-04-22 17:59 48.82206 22.36425 14110 ft 314 kts 259°
2026-04-22 17:59 48.81757 22.33181 14106 ft 317 kts 262°
2026-04-22 17:59 48.81362 22.29769 14110 ft 346 kts 263°
2026-04-22 18:00 48.81092 22.27303 14108 ft 355 kts 263°
2026-04-22 18:00 48.80549 22.22371 14110 ft 359 kts 263°
2026-04-22 18:00 48.80120 22.18635 14109 ft 360 kts 262°
2026-04-22 18:00 48.79676 22.14900 14105 ft 360 kts 262°
2026-04-22 18:01 48.79221 22.11154 14107 ft 360 kts 262°
2026-04-22 18:01 48.78765 22.07420 14112 ft 360 kts 262°
2026-04-22 18:01 48.78306 22.03690 14108 ft 360 kts 262°
2026-04-22 18:01 48.77843 21.99953 14107 ft 360 kts 262°
2026-04-22 18:02 48.77382 21.96228 14107 ft 360 kts 262°
2026-04-22 18:02 48.76920 21.92491 14110 ft 360 kts 262°
2026-04-22 18:02 48.76459 21.88779 13909 ft 356 kts 262°
2026-04-22 18:02 48.75999 21.85100 13310 ft 353 kts 262°
2026-04-22 18:03 48.75544 21.81471 12720 ft 347 kts 262°
2026-04-22 18:03 48.75097 21.77914 11751 ft 341 kts 262°
2026-04-22 18:03 48.74657 21.74420 10826 ft 335 kts 261°
2026-04-22 18:03 48.73951 21.71078 9944 ft 332 kts 247°
2026-04-22 18:04 48.72876 21.68015 9105 ft 325 kts 244°
2026-04-22 18:04 48.71834 21.65134 8941 ft 299 kts 244°
2026-04-22 18:04 48.70864 21.62446 8795 ft 288 kts 244°
2026-04-22 18:04 48.69909 21.59789 8676 ft 286 kts 244°
2026-04-22 18:05 48.68962 21.57150 8539 ft 285 kts 244°
2026-04-22 18:05 48.68013 21.54505 8406 ft 285 kts 244°
2026-04-22 18:05 48.67065 21.51870 8273 ft 285 kts 244°
2026-04-22 18:05 48.66133 21.49293 8001 ft 282 kts 244°
2026-04-22 18:06 48.65193 21.46694 7516 ft 281 kts 244°
2026-04-22 18:06 48.64260 21.44117 7008 ft 279 kts 244°
2026-04-22 18:06 48.63309 21.41570 6502 ft 278 kts 239°
2026-04-22 18:06 48.62034 21.39374 6076 ft 278 kts 222°
2026-04-22 18:07 48.60399 21.37781 5991 ft 278 kts 206°
2026-04-22 18:07 48.58641 21.36919 6003 ft 257 kts 193°
2026-04-22 18:07 48.56902 21.36317 6010 ft 256 kts 194°
2026-04-22 18:07 48.55173 21.35708 5962 ft 254 kts 194°
2026-04-22 18:08 48.53476 21.35107 5692 ft 243 kts 194°
2026-04-22 18:08 48.51894 21.34548 5579 ft 225 kts 194°
2026-04-22 18:08 48.50407 21.34025 5324 ft 215 kts 194°
2026-04-22 18:08 48.48950 21.33513 4957 ft 214 kts 194°
2026-04-22 18:09 48.47503 21.33005 4579 ft 213 kts 194°
2026-04-22 18:09 48.46064 21.32502 4355 ft 212 kts 194°
2026-04-22 18:09 48.44688 21.31780 4117 ft 208 kts 219°
2026-04-22 18:09 48.43984 21.30024 4014 ft 196 kts 269°
2026-04-22 18:10 48.44366 21.28199 4016 ft 183 kts 316°
2026-04-22 18:10 48.45299 21.26910 4014 ft 183 kts 315°
2026-04-22 18:10 48.45907 21.25251 3631 ft 181 kts 297°
2026-04-22 18:10 48.46442 21.23534 3516 ft 182 kts 304°
2026-04-22 18:11 48.47107 21.21890 3512 ft 184 kts 306°
2026-04-22 18:11 48.47759 21.20362 3517 ft 166 kts 311°
2026-04-22 18:11 48.48586 21.19253 3510 ft 156 kts 332°
2026-04-22 18:11 48.49568 21.18688 3514 ft 152 kts 350°
2026-04-22 18:12 48.50629 21.18664 3509 ft 151 kts
2026-04-22 18:12 48.51612 21.18997 3424 ft 137 kts 12°
2026-04-22 18:12 48.52218 21.19208 3331 ft 128 kts 11°
2026-04-22 18:12 48.53335 21.19596 3135 ft 122 kts 11°
2026-04-22 18:13 48.54156 21.19881 2977 ft 120 kts 11°
2026-04-22 18:13 48.54969 21.20164 2817 ft 120 kts 11°
2026-04-22 18:13 48.55780 21.20446 2648 ft 120 kts 11°
2026-04-22 18:13 48.56592 21.20728 2494 ft 119 kts 11°
2026-04-22 18:14 48.57401 21.21010 2335 ft 119 kts 11°
2026-04-22 18:14 48.58208 21.21291 2171 ft 119 kts 11°
2026-04-22 18:14 48.59004 21.21568 2016 ft 119 kts 11°
2026-04-22 18:14 48.59807 21.21848 1849 ft 118 kts 11°
2026-04-22 18:15 48.60352 21.22038 1735 ft 119 kts 11°
2026-04-22 18:15 48.61435 21.22415 1500 ft 122 kts 13°
2026-04-22 18:15 48.62270 21.22706 1327 ft 125 kts 13°
2026-04-22 18:15 48.63116 21.23002 1160 ft 125 kts 11°
2026-04-22 18:16 48.63962 21.23297 988 ft 124 kts 13°
2026-04-22 18:16 48.64811 21.23593 827 ft 125 kts 12°
2026-04-22 18:16 48.65628 21.23884 750 ft 108 kts 12°
2026-04-22 18:16 48.66303 21.24100 753 ft 93 kts 13°
2026-04-22 18:17 48.66855 21.24310 762 ft 70 kts 14°
2026-04-22 18:17 48.67164 21.24416 761 ft 27 kts
2026-04-22 18:17 48.67230 21.24344 757 ft 9 kts 294°
2026-04-22 18:17 48.67248 21.24282 757 ft 0 kts 285°
2026-04-22 18:18 48.67249 21.24280 754 ft 1 kts 285°
2026-04-22 18:18 48.67253 21.24256 757 ft 4 kts 285°
2026-04-22 18:18 48.67262 21.24206 760 ft 6 kts 284°
2026-04-22 18:19 48.67273 21.24138 760 ft 8 kts 283°
2026-04-22 18:19 48.67283 21.24070 761 ft 0 kts 281°
2026-04-22 18:19 48.67285 21.24061 762 ft 1 kts 282°
2026-04-22 18:20 48.67289 21.24028 762 ft 6 kts 281°
2026-04-22 18:20 48.67300 21.23952 763 ft 8 kts 284°
2026-04-22 18:20 48.67338 21.23891 765 ft 8 kts 323°
2026-04-22 18:20 48.67342 21.23853 766 ft 0 kts 255°
2026-04-22 18:21 48.67339 21.23850 766 ft 1 kts 236°
2026-04-22 18:21 48.67337 21.23847 766 ft 0 kts 228°